Regional Weather Roundup
Issued by NWS

Home | Current Version | Previous Version | Graphics & Text | Print | Product List | Glossary On
Versions: 1 2 3 4 5 6 7 8 9 10 11 12 13 14 15 16 17 18 19 20 21 22 23 24 25 26 27 28 29 30 31 32 33 34 35 36 37 38 39 40 41 42 43 44 45 46 47 48 49 50
917
ASUS45 KPSR 232210
RWRAZ

ARIZONA HOURLY REGIONAL WEATHER ROUNDUP
NATIONAL WEATHER SERVICE PHOENIX AZ
300 PM MST MON JAN 23 2017

NOTE: FAIR INDICATES FEW OR NO CLOUDS BELOW 12,000 FEET WITH NO
SIGNIFICANT WEATHER AND/OR OBSTRUCTIONS TO VISIBILITY.

AZZ001>003-036-232300-
NORTHWEST ARIZONA

CITY           SKY/WX    TMP DP  RH WIND       PRES   REMARKS
BULLHEAD CITY  PTSUNNY   55  37  50 SW7G30    29.75R
KINGMAN        CLOUDY    46  31  55 SW18G24   29.72F
$$

AZZ004>008-015-016-018-232300-
NORTH CENTRAL ARIZONA

CITY           SKY/WX    TMP DP  RH WIND       PRES   REMARKS
GRAND CANYON   SNOW      30  29  96 SW14G21   29.69R VSB 1/2 WCI  19
WILLIAMS       MIX PCPN  32  27  80 SW18G32   29.69F WCI  20
PRESCOTT       LGT RAIN  39  34  82 SW13G21   29.75F WCI  31
FLAGSTAFF      LGT SNOW  30  27  88 SW24G43   29.68F FOG     WCI  16
PAYSON         LGT RAIN  39  37  93 S15       29.80F WCI  31
PAGE           CLOUDY    41  31  67 SW8       29.65F
$$

AZZ009>014-017-232300-
NORTHEAST ARIZONA

CITY           SKY/WX    TMP DP  RH WIND       PRES   REMARKS
WINSLOW        LGT RAIN  47  38  71 S17       29.72F
SAINT JOHNS    SUNNY     52  29  41 SW32G48   29.72F
SHOW LOW       LGT SNOW  32  32 100 SW16G25   29.78S WCI  21
$$

AZZ023-232300-
GREATER PHOENIX AREA

CITY           SKY/WX    TMP DP  RH WIND       PRES   REMARKS
PHOENIX        PTSUNNY   60  45  57 NW12      29.77F
BUCKEYE        PTSUNNY   59  46  63 W10       29.78F
GLENDALE       PTSUNNY   55  55 100 NW7       29.80F
LUKE AFB       LGT RAIN  55  49  81 N7        29.77F
DEER VALLEY    CLOUDY    52  50  93 CALM      29.78F
SCOTTSDALE     LGT RAIN  53  50  89 W7        29.80F
MESA-GATEWAY   CLOUDY    61  46  59 SW17      29.80F
CHANDLER       CLOUDY    61  46  59 SW16G25   29.79F
$$

AZZ027-028-232300-
SOUTHWEST MARICOPA COUNTY AND PINAL COUNTY

CITY           SKY/WX    TMP DP  RH WIND       PRES   REMARKS
CASA GRANDE    LGT RAIN  53  51  93 SW8       29.82F FOG
GILA BEND      PTSUNNY   64  44  48 SW14G24   29.77F
$$

AZZ503-504-507>509-232300-
SOUTHEAST ARIZONA

CITY           SKY/WX    TMP DP  RH WIND       PRES   REMARKS
TUCSON         MOSUNNY   68  39  34 SW23G32   29.83F
DAVIS-MONTHAN  MOSUNNY   67  39  36 SW22G31   29.81F
RYAN FIELD     SUNNY     66  39  37 SW28G38   29.82F
NOGALES        MOSUNNY   63  41  44 SW18G30   29.89F
SIERRA VISTA   SUNNY     60  38  43 SW25G32   29.88F
DOUGLAS        SUNNY     66  35  31 SW25G38   29.86F
SAFFORD        MOSUNNY   67  31  26 SW17G23   29.75F
$$

AZZ020-021-025-026-031-232300-
SOUTHWEST ARIZONA

CITY           SKY/WX    TMP DP  RH WIND       PRES   REMARKS
YUMA           PTSUNNY   62  40  44 NW17G24   29.81F
$$

CAZ031-033-041-043-047-048-061-232300-
SOUTHERN CALIFORNIA

CITY           SKY/WX    TMP DP  RH WIND       PRES   REMARKS
DOWNTOWN L.A.  NOT AVBL
L.A. AIRPORT   PTSUNNY   53  45  74 W18       29.85F
SAN DIEGO      CLOUDY    55  46  71 NW12G22   29.90F
BURBANK        PTSUNNY   51  40  65 W9        29.82F
ONTARIO        LGT RAIN  46  44  93 W15       29.84S
PALM SPRINGS   CLOUDY    51  42  71 S5        29.82F
EL CENTRO NAS  PTSUNNY   58  40  51 W18       29.86F
IMPERIAL       PTSUNNY   59  42  53 W21       29.83F
BLYTHE         MOSUNNY   62  37  39 SW30G41   29.78F HAZE
NEEDLES        CLOUDY    60  35  39 SW16G23   29.74F
$$

NVZ020-UTZ003-232300-
SOUTHERN NEVADA-UTAH

CITY           SKY/WX    TMP DP  RH WIND       PRES   REMARKS
LAS VEGAS      CLOUDY    51  30  44 SW17G28   29.66S
SALT LAKE CITY LGT SNOW  34  32  92 NW5       29.50R FOG     WCI  30
$$

NMZ009-TXZ055-232300-
NEW MEXICO-WEST TEXAS

CITY           SKY/WX    TMP DP  RH WIND       PRES   REMARKS
ALBUQUERQUE    PTSUNNY   58  27  30 S22G33    29.72F
EL PASO        MOSUNNY   67  21  17 SW20      29.85F
$$


........................KEY........................
SKY/WX - SKY CONDITION/WEATHER
TMP    - TEMPERATURE IN FAHRENHEIT
DP     - DEW POINT IN FAHRENHEIT
RH     - RELATIVE HUMIDITY IN PERCENT
WIND   - DIRECTION AND SPEED IN MILES PER HOUR (MPH)
VRB    - VARIABLE WIND DIRECTION
PRES   - MEAN SEA LEVEL PRESSURE IN INCHES OF MERCURY
         F - FALLING PRESSURE   R - RISING PRESSURE
         S - STEADY PRESSURE
VSB    - VISIBILITY IN MILES
HX     - HEAT INDEX IN FAHRENHEIT
WCI    - WIND CHILL INDEX IN FAHRENHEIT
TC     - TEMPERATURE IN CELSIUS WHICH IS ALSO KNOWN AS
         TEMPERATURE IN CENTIGRADE
AFB    - AIR FORCE BASE
         LUKE AFB IS LUKE AIR FORCE BASE
         DAVIS-MONTHAN IS DAVIS-MONTHAN AIR FORCE BASE
NAS    - NAVAL AIR STATION
         EL CENTRO NAS IS EL CENTRO NAVAL AIR STATION
N/A    - NOT AVAILABLE





USA.gov is the U.S. government's official web portal to all federal, state and local government web resources and services.